Weather in Moruya

Australia     35°51′22″S   150°10′10″E
temp.,
°C
wind,
m/s
gust,
m/s
humid.,
%
clouds,
%
prec.,
mm/h
press.,
hPa
HPBL,
m
9 may, sun
sun901:00+14sw3478100 0.1 1017144
04:00+15wsw2380100 0.3 1018113
07:00+14wsw339099 0.8 1019132
10:00+18wsw117536 0.9 1019351
13:00+19e22706 0.0 1016735
16:00+19ne35755 0.1 1015391
19:00+16nnw23885 0.0 1016122
22:00+14nw23880 0.0 101592
10 may, mon
mon1001:00+13wnw23860 0.0 101493
04:00+13wnw36850 0.0 1013126
07:00+13nw34835 0.0 101386
10:00+20nw37545 0.0 1013913
13:00+23nw47494 0.0 10091176
16:00+21nw36598 0.0 1009303
19:00+16nw4672100 0.0 1012147
22:00+15nw3380100 0.1 101376
11 may, tue
tue1101:00+15wsw2484100 0.2 101497
04:00+15s5690100 4.1 1015371
07:00+14s81284100 3.6 1018783
10:00+13sw71286100 4.1 1020883
13:00+13s91495100 29.2 10191068
16:00+13s101590100 49.4 10221424
19:00+12s91488100 9.8 10231410
22:00+12ssw81393100 20.8 1024965
12 may, wed
wed1201:00+13ssw5995100 27.3 1023650
04:00+16e469099 37.3 1021421
07:00+15n2488100 5.6 1023362
10:00+16wsw2389100 6.9 1024164
13:00+19s12689 0.1 1022671
16:00+18s22761 0.1 1022269
19:00+15wsw23884 0.0 1023116
22:00+14wsw239313 0.0 1023115
13 may, thu
thu1301:00+13wsw239310 0.0 1021118
04:00+13wsw239234 0.3 102098
07:00+14w238996 0.0 1019106
10:00+16wsw117873 0.0 1018206
13:00+19se116910 0.0 1015585
16:00+18e23800 0.0 1013212
19:00+15nw229012 0.0 101380
22:00+13wnw22910 0.0 101277